Location: Dąbrowa Miętka
(51.3714°N, 18.6370°E)
Time: 20:58:25
(UTC+02:00)

ISS - Pass Details

Date: 30 May 2018
Orbit: 403 x 408 km, 51.6° (Epoch: 26 September)

Event Time Altitude Azimuth Distance (km) Brightness Sun altitude
Rises 22:13:59 0° 281° (W) 2,331 0.8 -9.8°
Reaches altitude 10° 22:16:05 10° 279° (W) 1,467 -0.3 -10.0°
Maximum altitude 22:19:22 76° 194° (SSW) 421 -3.9 -10.3°
Enters shadow 22:22:28 11° 109° (ESE) 1,397 -1.6 -10.5°
